Wind_Gust
25 25 26 25 24 24 23 23 24 24 26 27 31 29 27 24 26 27 24 24 21 22 23 23 23 23 23 25 26 27 28 28 26 26 27 29 30 27 25 25 27 26 25 26 26 25 27 27 27 26 22 22 23 20 20 20 19 18 17 18 20 19 20 23 27 29 22 11 13 16 13 10 13 12 14 14 13 14 16 18 19 19 19 20 21
26 26 24 23 22 24 25 25 27 25 24 24 25 32 32 27 29 29 29 27 21 25 24 24 26 26 26 28 28 28 31 29 27 29 29 27 29 28 28 29 30 30 27 27 27 27 25 27 28 26 23 25 24 24 22 20 19 20 21 20 21 20 18 26 26 25 31 12 13 12 14 10 15 8 13 14 14 12 14 15 16 18 20 19 20
27 25 26 26 25 26 27 27 27 26 27 26 27 32 32 26 25 26 23 21 21 26 27 28 25 25 26 25 25 25 26 26 26 28 30 29 30 31 30 30 28 28 28 28 28 26 26 27 28 26 23 24 25 26 23 21 20 21 23 22 22 21 18 21 23 24 24 26 13 13 15 16 17 16 13 12 12 13 15 15 16 17 18 19 21
29 27 27 28 28 27 27 27 27 28 28 28 25 24 26 23 22 27 28 24 23 22 25 27 27 26 27 26 26 26 24 26 27 28 30 31 32 32 29 29 29 30 31 31 28 28 29 28 28 27 24 24 25 24 23 22 23 23 23 23 22 24 21 17 21 24 21 23 15 19 15 15 19 14 14 12 14 14 15 14 15 17 18 19 22
30 29 27 29 28 26 26 28 28 28 28 27 25 25 25 31 28 28 22 26 29 26 26 25 25 28 26 26 26 26 28 29 31 30 30 30 31 33 32 29 30 30 31 30 24 28 29 30 29 26 25 27 26 25 24 23 26 25 25 25 23 22 18 18 21 20 22 24 25 15 12 15 17 15 14 18 15 15 12 16 17 19 19 17 18
30 28 28 28 28 27 27 26 27 26 27 26 25 25 25 23 27 26 26 27 30 32 29 29 29 28 29 31 29 29 31 32 33 33 33 30 30 30 31 31 31 29 29 28 28 29 29 29 28 26 26 29 29 27 25 24 24 24 25 26 25 20 19 18 18 17 20 25 22 24 11 18 15 18 16 18 17 19 18 17 12 14 16 17 18
29 30 28 29 28 26 26 27 27 26 26 26 25 25 25 24 25 31 29 28 29 33 29 27 27 28 29 30 31 29 30 30 30 30 31 29 28 29 30 29 30 30 30 29 28 28 29 28 27 27 29 30 29 28 27 24 24 25 26 25 24 21 22 21 20 20 21 23 22 19 21 16 17 23 16 14 16 18 22 19 20 16 16 19 20
29 29 30 28 27 27 25 25 26 27 27 26 24 25 25 24 22 24 23 24 27 30 29 29 30 29 30 32 32 30 30 29 30 30 28 29 29 29 30 30 32 31 29 31 28 27 29 29 28 28 29 30 29 28 25 27 25 25 26 24 22 22 24 23 20 21 21 22 24 23 18 21 13 14 11 11 17 18 19 22 25 22 17 14 16
28 28 27 28 27 26 25 25 24 25 25 25 22 19 20 21 21 20 21 21 22 26 27 27 29 30 31 30 31 31 32 30 31 32 32 30 30 30 30 31 32 32 32 32 32 32 30 28 28 27 29 26 27 24 22 21 25 26 26 23 23 23 24 21 22 21 22 22 24 20 17 17 20 16 17 20 24 30 17 13 20 18 15 16 19
27 28 27 28 27 26 25 24 24 23 22 22 20 19 19 20 20 18 16 18 19 20 22 25 27 29 30 30 30 29 31 31 23 25 24 29 29 29 28 30 31 30 31 31 32 32 32 27 29 25 26 27 26 26 25 26 26 27 28 23 24 24 24 24 23 23 23 23 26 22 20 25 25 21 22 23 20 13 14 12 16 15 8 16 16
27 28 26 26 27 25 22 22 23 23 22 22 19 19 19 20 19 19 19 18 20 20 20 22 24 26 27 27 26 25 26 27 26 25 25 26 27 27 28 28 29 30 30 29 31 30 33 31 28 26 28 25 28 27 26 26 26 29 29 25 22 27 25 26 26 23 24 25 25 19 23 27 27 20 21 23 15 19 20 19 17 11 14 14 28
28 28 25 26 26 24 24 25 25 24 23 23 22 21 20 19 19 19 21 21 22 21 19 21 22 23 24 25 26 25 24 20 29 29 25 26 24 27 26 27 28 29 28 28 28 28 28 30 30 29 30 27 28 28 27 27 28 28 30 29 26 26 25 29 28 25 23 24 23 24 23 26 28 17 21 17 18 15 16 14 19 21 21 20 21
28 27 25 24 26 25 24 25 25 24 24 24 24 23 21 21 21 22 22 22 22 23 24 21 19 22 23 23 24 25 26 23 27 33 31 26 27 27 30 29 29 29 30 31 30 26 27 28 28 29 31 29 30 28 26 28 26 30 30 29 28 27 27 28 27 30 23 24 26 25 25 27 24 24 16 15 11 16 14 17 18 19 22 22 26
28 27 25 25 26 25 24 24 24 24 24 24 24 24 21 21 21 21 20 21 22 23 23 25 23 20 21 21 21 23 24 20 22 24 29 29 29 27 28 28 27 29 28 29 28 28 28 27 28 29 28 28 28 28 28 29 28 28 28 26 26 27 25 26 28 28 25 27 25 30 29 21 26 19 10 13 14 18 18 21 20 20 20 25 25
29 27 26 25 25 26 25 25 24 23 22 22 22 22 22 22 22 21 20 21 22 23 23 23 24 23 21 22 23 19 23 23 26 23 25 28 31 29 31 30 28 26 28 29 30 31 30 31 27 27 27 27 27 26 27 28 26 27 26 26 27 27 28 28 26 24 23 24 28 30 29 19 18 17 12 14 17 18 19 21 20 19 18 12 15
27 27 26 25 26 26 26 26 23 22 22 22 22 22 22 22 22 22 21 21 19 20 21 20 22 23 24 21 18 20 18 24 28 30 29 28 30 28 26 29 28 28 28 26 29 29 29 30 30 29 26 26 23 27 27 28 27 26 27 27 28 28 28 23 26 23 25 26 27 30 27 23 19 18 15 15 15 14 12 8 8 7 18 19 22
27 27 25 25 26 26 26 25 25 25 22 21 21 22 23 24 24 22 22 21 22 21 22 22 21 22 23 23 20 19 19 21 27 29 29 27 21 20 24 24 23 23 23 23 25 26 25 25 26 27 26 27 25 26 26 26 30 30 28 27 27 25 28 27 23 22 23 25 28 30 31 31 20 20 22 22 21 14 11 11 15 9 14 20 20
28 28 27 27 27 27 26 27 25 25 25 23 23 22 22 21 20 21 21 23 24 24 22 23 21 20 20 23 22 21 21 21 27 28 28 28 25 27 24 23 24 24 22 22 24 23 25 29 29 28 27 27 25 27 26 27 30 31 28 25 24 24 25 24 24 22 22 24 26 24 20 17 20 22 23 25 22 14 19 23 19 12 17 18 23
28 29 29 28 28 27 26 25 25 25 25 24 22 23 21 21 21 22 22 20 21 22 21 21 22 20 19 20 21 26 21 17 21 24 25 25 25 21 21 20 21 22 21 24 22 21 20 21 27 29 26 29 33 28 27 26 27 29 28 26 24 22 26 26 27 25 22 17 17 19 23 25 29 28 26 27 28 23 24 25 23 23 25 22 21
25 27 27 27 27 28 27 26 26 26 26 25 24 22 22 22 22 22 23 20 20 20 20 20 21 21 19 18 20 21 21 20 18 24 23 22 22 24 18 18 20 22 20 23 25 23 21 19 18 22 26 26 28 27 29 30 29 27 27 25 24 30 30 27 27 25 23 19 18 22 26 23 25 26 27 27 28 27 30 30 29 29 31 29 27
19 24 27 26 26 26 26 25 28 27 24 24 24 23 21 20 20 21 21 21 21 20 20 21 20 21 20 18 18 18 19 20 19 18 20 22 23 23 21 23 21 19 19 21 23 26 27 25 22 24 31 32 29 27 24 24 23 31 27 26 32 34 29 30 23 20 18 13 13 15 18 19 20 19 19 22 24 25 25 22 25 26 28 29 28
23 24 26 25 25 26 26 27 26 27 26 26 24 22 21 21 21 20 20 20 20 21 20 20 21 21 20 18 18 20 17 19 21 17 19 20 21 25 21 20 21 21 23 24 24 24 22 22 22 20 26 27 25 26 28 29 30 27 29 24 23 25 33 27 21 18 19 18 21 23 21 20 22 21 22 22 23 23 23 21 20 23 26 24 26
18 18 22 24 24 26 26 27 29 27 28 26 24 22 21 22 22 21 20 20 20 20 19 19 20 22 21 20 17 18 19 18 15 14 16 18 20 22 21 19 20 23 21 21 19 21 16 13 15 20 19 20 22 22 25 25 20 20 28 32 34 34 29 25 21 19 19 20 21 24 23 21 22 22 22 21 18 16 17 18 18 19 21 22 23
19 19 21 20 23 25 26 28 28 25 26 25 24 23 22 22 20 20 21 21 21 21 20 20 19 22 22 24 23 19 16 9 11 14 14 16 18 20 22 19 14 16 16 17 17 15 15 12 10 15 16 19 22 25 23 21 23 20 23 26 27 22 23 22 23 23 23 22 20 21 21 21 20 20 20 19 19 18 21 21 23 22 20 21 21
23 24 23 23 23 23 26 29 28 25 24 23 23 23 21 22 22 22 22 22 21 21 21 20 19 20 21 21 24 16 20 17 14 15 14 10 14 16 17 18 17 14 17 16 12 10 11 15 20 21 17 16 18 19 24 22 17 19 20 21 19 23 19 17 20 19 21 23 22 19 19 21 23 22 19 20 16 13 15 15 16 17 18 17 17
26 25 24 25 25 25 25 25 26 26 24 20 19 20 22 23 23 23 23 23 22 22 21 21 22 21 20 23 20 16 17 17 16 15 15 14 10 10 14 14 17 20 22 18 13 12 15 17 20 20 15 18 18 16 15 19 15 17 21 20 20 22 23 23 18 18 18 19 19 19 18 16 16 16 15 15 14 16 15 16 15 17 17 18 18
26 25 26 23 22 24 26 24 24 23 21 20 20 21 22 23 24 26 25 25 23 22 21 22 22 22 21 22 19 17 17 18 19 19 19 14 13 10 9 8 10 8 12 13 10 17 24 20 20 20 21 22 23 21 21 17 20 19 20 18 17 19 19 20 20 21 20 18 18 19 17 17 15 13 15 15 18 18 17 19 20 20 19 18 17
25 24 25 24 25 25 25 22 25 23 21 23 23 24 23 22 24 26 28 27 26 24 22 20 22 22 21 21 18 17 17 18 20 22 24 15 12 11 8 9 10 11 11 13 16 21 22 16 21 21 22 24 23 22 22 20 21 21 22 21 22 20 17 14 15 17 19 19 21 20 21 19 21 21 17 16 17 17 17 19 17 17 15 14 18
24 23 24 24 27 27 26 26 25 24 19 23 24 22 20 21 22 22 23 24 25 23 21 22 21 18 17 22 22 19 19 23 23 14 16 15 19 16 15 14 14 17 16 18 23 22 24 26 24 25 25 22 22 22 21 21 21 22 23 23 23 23 22 23 23 22 20 20 20 19 20 19 19 17 15 14 14 14 13 13 12 15 13 14 20
23 24 25 24 25 26 26 26 25 24 23 20 18 16 16 20 23 24 22 23 26 26 23 28 26 21 20 24 23 24 21 19 16 18 22 27 28 26 23 24 20 26 28 30 27 30 24 24 24 22 22 22 22 22 22 21 21 23 22 17 23 24 23 22 21 20 18 18 18 18 17 15 18 16 15 16 16 15 17 14 14 14 16 14 17
22 23 26 26 24 26 25 26 25 24 24 22 19 19 16 14 19 27 28 27 26 29 29 31 32 31 27 19 21 28 26 21 22 24 28 30 30 31 31 30 30 26 23 36 35 30 25 26 23 23 22 22 23 23 20 22 21 21 21 19 20 21 19 20 21 19 19 18 17 18 19 18 17 18 17 17 17 15 14 14 13 14 15 16 19
22 23 24 23 23 20 23 25 24 23 24 24 23 21 19 19 18 17 21 23 27 28 30 31 32 32 33 32 26 28 28 26 27 28 29 33 34 35 35 32 29 29 28 36 37 27 25 24 22 22 21 23 21 20 21 21 21 21 20 20 22 20 21 21 19 21 21 21 19 16 20 20 20 19 18 18 16 16 18 19 18 16 15 15 17
19 19 23 22 24 21 19 20 21 22 22 24 23 22 23 22 21 21 21 18 21 24 29 31 33 37 37 36 35 29 26 28 32 32 30 29 34 37 39 38 35 28 39 39 32 28 24 24 23 22 22 22 20 21 21 21 21 20 21 20 20 20 20 18 16 18 17 18 16 17 17 16 16 15 13 14 16 16 15 15 16 16 15 15 14
16 17 19 20 23 22 24 21 21 22 21 20 20 20 19 19 18 18 20 23 26 23 24 30 32 32 36 37 36 34 34 35 37 37 35 29 27 31 33 39 38 39 35 31 28 27 23 24 24 23 22 20 20 20 20 21 20 19 19 19 18 19 19 20 20 21 17 19 19 16 17 17 16 18 17 17 17 15 16 15 15 16 16 16 16
13 11 12 13 18 18 20 21 20 21 21 21 21 21 20 18 17 21 22 23 22 24 24 27 27 31 34 29 33 36 35 36 37 38 39 34 29 32 33 40 38 34 36 30 29 25 24 23 22 22 20 21 20 20 20 19 20 20 21 19 19 20 21 22 22 20 21 19 19 17 16 16 18 15 14 15 15 16 15 15 15 15 16 17 16
11 12 16 19 19 18 18 20 20 19 18 20 19 19 17 18 21 20 20 21 22 22 25 26 24 21 31 30 33 32 34 36 36 37 37 37 33 34 38 30 31 28 28 26 27 25 24 23 21 21 21 20 20 20 20 20 19 19 19 19 20 20 20 21 20 20 19 20 18 18 16 17 17 16 16 14 13 13 13 13 13 13 12 13 12
9 9 11 16 18 17 17 18 19 19 13 16 18 20 19 18 17 19 21 23 23 22 22 23 26 27 27 28 28 27 32 31 33 37 38 38 37 38 33 29 27 27 28 25 24 22 23 22 21 21 21 21 20 20 20 21 20 19 17 21 20 21 22 21 22 19 20 19 19 20 20 18 19 18 16 15 14 13 13 12 12 11 11 13 10
8 7 8 10 15 16 19 19 17 12 16 18 21 20 20 19 19 19 20 22 24 24 26 26 20 25 27 26 26 22 24 21 31 32 31 30 37 35 32 30 29 29 25 24 24 21 22 21 21 22 22 21 22 21 21 20 20 21 21 20 20 19 20 20 20 20 20 18 18 18 17 17 18 17 15 14 14 15 14 13 13 14 13 11 9
6 5 7 6 8 15 16 15 15 17 17 17 20 19 19 20 23 23 21 21 22 23 22 24 25 26 27 23 24 22 30 39 36 32 30 30 28 29 27 27 26 25 25 24 23 23 22 22 20 21 21 22 21 20 20 19 19 20 20 18 19 20 22 21 21 21 19 19 18 18 17 16 16 16 15 15 13 13 13 14 12 12 13 14 13
7 6 7 6 10 8 10 10 12 14 14 16 16 13 15 18 19 19 19 22 23 22 24 25 27 25 24 25 24 26 31 29 27 25 25 26 26 26 25 26 25 24 22 22 22 21 21 21 20 20 20 20 21 20 19 20 20 18 18 20 18 18 19 18 18 19 19 18 18 18 18 18 17 16 14 14 14 14 14 14 13 12 12 12 12
11 8 6 7 7 10 9 9 11 11 12 13 14 14 13 13 14 15 17 19 18 19 21 22 23 22 24 29 28 26 26 25 24 24 24 24 23 23 23 23 22 22 21 20 20 19 19 19 19 19 19 19 19 19 19 19 19 19 19 19 18 17 17 17 17 17 17 17 17 19 18 18 17 17 17 16 12 13 12 12 12 12 12 11 11
11 10 11 10 10 11 10 8 10 9 9 9 13 14 14 14 13 14 15 17 16 15 16 15 15 15 19 26 24 24 25 22 22 21 21 21 21 21 20 20 20 19 19 19 18 18 18 18 18 18 19 19 18 18 18 19 19 20 20 19 19 19 18 18 18 18 18 18 17 18 18 19 19 18 17 12 16 15 14 13 12 11 11 12 12
10 11 11 11 12 12 11 12 10 10 9 10 11 8 11 13 14 14 14 13 14 14 14 14 12 12 16 15 19 16 19 18 13 18 18 18 18 19 19 19 17 16 16 15 16 15 17 17 17 17 18 18 19 18 18 19 19 19 19 19 19 19 20 20 19 19 19 19 19 19 19 19 19 17 17 15 16 16 16 15 15 15 15 14 13
10 11 10 11 12 12 11 13 13 12 10 11 12 13 13 13 13 13 14 14 14 14 14 14 14 13 14 14 15 17 17 17 17 16 14 13 12 13 14 14 13 13 14 15 15 15 15 16 15 15 15 16 17 16 18 17 18 19 20 21 19 20 20 20 20 21 22 21 22 21 21 21 20 18 16 16 16 16 15 14 14 14 14 13 13
10 11 11 11 12 12 13 12 11 12 11 11 13 14 13 13 14 14 13 14 13 13 14 15 15 14 14 14 15 16 15 14 15 15 15 14 12 11 11 11 12 13 14 14 14 15 15 16 16 16 15 15 14 14 15 15 15 15 17 18 19 21 21 22 21 20 19 19 21 21 20 19 20 18 18 18 16 15 15 14 14 11 14 14 13
10 11 11 11 11 10 11 12 10 12 13 14 13 14 13 14 14 14 13 13 12 12 13 14 14 14 13 14 14 13 14 14 15 16 15 15 15 15 14 11 10 11 11 11 12 13 13 13 16 17 18 17 17 17 16 16 17 17 17 15 18 19 19 20 20 20 19 18 19 19 20 19 19 16 16 17 16 15 14 14 13 13 12 13 13
9 10 10 10 11 10 10 9 11 11 13 14 13 14 13 14 14 12 12 14 13 12 13 13 13 13 13 13 14 13 13 14 15 14 15 15 15 15 14 12 12 13 12 12 11 12 13 13 14 16 17 17 16 17 18 18 19 20 20 20 19 22 21 22 22 19 19 19 18 17 17 17 17 16 17 17 16 17 16 15 15 15 15 14 14
9 10 10 9 10 11 11 11 11 8 11 12 12 12 13 13 13 13 14 13 14 14 14 14 14 14 14 14 14 14 14 14 14 15 15 15 15 14 14 13 12 12 12 12 12 12 13 14 15 16 17 19 18 18 18 19 19 21 20 20 21 27 30 25 22 20 19 20 18 16 16 17 16 14 15 16 15 16 16 17 16 15 15 15 14
10 11 10 10 10 11 11 11 10 11 11 11 11 12 12 13 14 14 13 14 14 14 16 16 15 15 16 15 15 15 15 15 16 16 16 15 15 14 14 14 12 13 12 11 12 12 13 14 15 15 17 19 20 19 18 18 21 20 21 21 26 30 29 29 22 21 22 21 17 16 15 15 15 13 13 14 15 14 14 14 14 15 15 14 14
10 10 11 10 11 10 10 11 11 11 10 11 12 12 12 12 13 13 14 14 15 14 15 15 15 15 16 16 16 16 16 16 16 16 15 14 15 14 14 14 14 13 13 13 13 12 12 13 14 15 17 19 20 19 19 19 19 21 20 26 27 30 30 31 28 28 26 19 19 15 15 15 13 13 13 14 14 14 14 15 15 14 14 14 14
9 10 10 10 10 11 11 12 11 11 11 11 12 12 12 12 13 13 13 14 14 14 14 15 15 15 15 16 15 16 16 15 14 15 15 14 14 14 14 14 14 14 13 14 14 14 13 13 14 15 16 18 20 20 19 18 19 24 22 25 28 31 32 31 30 26 31 25 20 18 16 18 16 15 15 15 15 14 16 15 15 14 14 14 14
Wind_Speed
12 11 11 11 11 11 11 10 12 11 11 11 11 11 10 11 11 11 10 10 10 11 12 13 13 13 14 14 13 13 13 13 12 10 9 11 12 12 12 11 13 13 13 14 14 14 14 15 15 15 13 13 12 11 10 10 9 9 9 9 10 10 10 11 13 15 9 6 6 6 4 4 6 6 8 8 7 7 9 10 10 9 10 10 11
11 12 11 10 10 10 11 11 11 11 11 10 11 12 11 11 11 11 11 11 10 11 12 11 12 13 13 15 14 13 13 14 13 11 12 13 13 11 12 13 14 14 12 15 15 14 14 15 16 15 14 14 13 12 11 10 10 10 10 10 11 10 10 11 13 12 16 5 6 5 6 3 6 4 7 8 8 7 8 8 8 9 10 9 10
11 11 11 11 12 11 12 12 11 10 11 11 12 12 12 12 12 11 10 10 10 10 11 12 12 13 14 14 15 14 14 14 13 14 15 16 15 13 13 14 15 15 15 17 16 14 14 15 16 14 11 13 13 13 11 12 10 11 13 11 12 11 10 11 10 12 13 12 6 6 6 5 7 8 6 6 7 6 7 8 8 8 9 10 10
11 11 11 12 12 12 12 11 11 11 12 11 12 12 12 12 12 12 11 10 10 10 11 12 12 13 14 14 14 15 15 13 14 13 15 15 15 16 15 16 16 17 18 18 17 15 15 15 15 14 12 13 13 12 12 11 11 11 13 13 12 13 11 9 12 11 10 11 7 8 6 6 7 7 7 6 6 7 6 7 5 7 8 8 10
10 10 10 11 12 12 12 12 12 13 12 11 12 13 13 13 12 13 12 11 10 10 10 10 12 13 14 15 15 15 15 15 15 15 14 15 16 16 16 16 17 17 18 18 16 15 15 16 16 13 13 14 13 13 12 13 12 12 13 13 12 11 9 9 11 11 11 13 12 5 5 6 6 5 5 7 7 7 6 8 7 8 8 8 8
10 10 11 12 12 13 13 12 12 13 13 12 12 13 13 13 13 12 12 11 9 9 10 10 11 13 14 14 14 15 15 15 15 15 15 15 16 16 16 15 16 17 17 17 16 15 15 16 15 14 14 15 14 13 12 14 13 13 15 14 13 11 10 9 8 9 11 13 12 10 4 7 5 6 6 7 8 9 9 9 6 6 7 7 8
10 11 11 12 13 13 13 12 12 12 12 12 12 12 13 13 14 13 11 9 8 9 9 11 11 12 13 13 14 15 15 15 15 15 16 16 16 16 16 16 16 16 16 17 16 16 16 15 15 14 15 15 16 15 14 13 12 14 15 14 13 12 12 11 10 9 10 11 11 10 10 7 7 11 7 6 8 9 11 10 10 7 7 9 9
11 11 12 11 11 12 12 12 12 12 11 11 11 11 11 11 12 12 9 7 8 9 10 11 11 10 11 12 13 13 13 14 15 15 15 15 15 15 16 16 16 16 16 15 15 15 15 15 14 14 15 15 15 15 14 13 12 13 13 12 12 12 13 12 11 11 11 11 12 11 9 10 6 7 4 3 6 8 8 7 11 11 8 4 6
10 11 12 11 11 11 11 9 8 10 10 9 9 10 11 11 12 11 8 7 7 8 9 11 11 12 11 12 12 12 12 13 13 13 13 15 14 14 15 15 15 15 15 15 14 13 13 13 13 13 15 18 21 19 17 15 12 13 14 13 13 13 13 11 11 11 11 11 12 10 9 9 10 8 8 9 12 14 4 6 9 10 5 6 8
10 10 12 13 13 13 11 10 11 11 11 12 10 10 10 10 11 11 9 8 7 8 9 10 11 11 11 12 12 11 11 11 14 19 16 13 13 13 13 14 15 14 14 14 14 13 13 11 10 16 18 20 20 20 20 20 21 17 14 12 13 13 13 12 12 12 11 12 13 11 10 13 12 10 11 12 10 6 6 6 8 8 2 7 8
9 9 12 12 12 12 11 10 10 11 11 12 11 11 11 10 10 11 12 10 10 9 9 10 10 10 11 12 11 11 10 10 16 16 18 19 16 14 14 13 14 14 14 14 14 13 12 12 10 11 12 15 16 18 19 21 21 23 24 21 17 15 14 14 14 12 12 12 12 10 12 14 15 10 10 12 7 9 10 7 8 6 6 6 11
8 9 11 11 11 12 10 10 10 11 12 12 13 12 10 10 10 10 11 12 12 12 12 10 11 10 9 10 11 11 11 13 17 17 17 19 18 15 13 12 13 13 13 14 13 12 12 12 12 11 11 12 13 14 17 19 21 22 22 22 21 21 21 17 15 13 12 12 12 13 12 13 15 8 10 7 8 7 8 7 8 9 8 8 8
8 9 11 11 11 11 11 10 10 10 10 11 12 12 11 10 10 11 12 11 11 12 14 13 10 10 10 11 12 11 10 13 16 18 20 21 21 19 14 14 14 14 13 14 14 13 12 12 13 12 12 17 15 12 11 10 12 17 19 21 22 22 21 22 22 17 12 13 14 14 13 13 13 12 8 6 4 8 7 7 8 7 8 9 11
8 9 10 10 11 11 11 11 10 10 10 10 11 12 11 10 10 10 10 11 10 11 12 14 14 11 10 10 11 10 10 10 14 18 21 23 23 20 15 14 14 15 15 15 14 14 14 13 12 12 11 12 11 11 9 9 8 7 9 11 11 14 17 19 20 22 19 14 13 13 14 11 12 11 4 6 7 9 7 9 7 8 8 11 12
8 8 9 10 10 10 11 11 10 10 10 10 10 11 11 10 10 10 10 10 11 11 11 12 13 14 13 11 10 10 9 11 13 14 12 16 20 20 16 16 15 15 14 15 15 15 14 13 12 11 11 12 13 13 12 12 10 9 8 8 9 8 9 8 7 6 7 8 9 11 13 10 9 10 6 8 10 10 9 10 11 10 8 5 6
8 8 9 9 10 10 11 13 13 11 10 10 10 11 11 11 12 11 11 10 9 9 10 9 11 13 14 13 11 10 10 12 15 15 17 17 18 13 15 15 16 16 15 14 13 13 13 13 12 12 12 13 16 22 20 14 12 12 12 11 12 12 13 14 15 13 10 8 7 11 15 12 10 11 9 9 9 9 8 3 1 1 3 6 10
8 9 10 9 9 9 10 12 13 14 13 12 11 11 11 12 11 9 10 10 11 11 11 11 10 11 14 14 12 10 11 11 15 17 17 19 14 10 12 12 7 9 10 12 12 12 12 13 13 13 14 14 17 18 19 18 12 12 12 12 12 9 8 6 11 15 16 17 20 24 26 25 8 9 14 13 10 8 5 5 8 4 5 8 9
9 9 9 9 9 8 10 12 13 13 13 13 13 12 11 9 9 8 9 11 12 11 11 11 11 10 11 14 13 11 11 11 13 15 17 19 17 13 13 11 10 12 12 10 9 8 10 16 16 13 13 13 17 19 19 16 12 12 13 12 10 8 6 6 8 11 18 20 15 9 8 8 10 14 12 11 10 6 6 10 10 6 8 9 10
10 10 10 9 9 10 10 11 11 12 12 13 12 12 11 11 10 8 9 9 10 10 10 10 11 10 9 11 17 16 13 12 14 15 17 19 16 11 10 10 11 13 11 9 7 7 9 12 17 16 14 15 20 20 21 18 14 14 15 11 11 12 11 12 12 10 10 6 5 8 9 13 11 10 11 17 18 12 9 12 11 9 9 8 8
9 9 9 10 10 10 9 11 11 12 13 14 13 12 11 10 10 10 9 9 9 9 9 10 12 11 10 10 11 12 13 12 11 15 15 14 17 11 7 6 8 9 8 8 9 9 8 8 11 16 18 17 17 19 21 24 18 15 12 11 10 12 11 11 11 11 11 9 6 8 9 9 7 7 8 10 13 14 12 11 10 9 9 7 8
9 7 9 10 11 10 9 10 11 11 11 11 11 11 10 10 10 10 10 9 8 9 10 10 11 11 9 10 10 11 11 12 12 15 16 16 16 15 10 12 11 9 8 8 7 8 10 11 9 13 17 17 16 17 18 18 15 10 10 10 13 16 14 10 10 12 6 6 6 7 8 8 8 8 8 9 11 11 10 8 7 6 5 4 5
8 9 9 9 11 10 10 10 10 8 10 12 13 11 11 11 10 11 9 9 11 10 10 10 11 11 9 8 10 10 10 14 12 13 15 17 16 18 11 10 10 8 8 8 9 9 9 8 8 10 14 17 16 13 13 15 17 11 13 15 17 16 12 10 5 6 7 7 7 7 7 7 8 8 9 9 10 9 5 3 6 7 10 11 12
8 9 10 10 10 11 10 11 10 8 10 11 13 12 11 11 11 10 11 11 11 11 11 10 11 11 10 8 8 10 11 11 10 8 11 14 15 16 16 12 11 9 8 8 9 10 8 7 6 10 12 13 15 17 15 13 9 9 11 12 13 16 14 6 6 8 7 7 8 7 7 7 8 9 8 8 6 3 4 7 7 9 8 7 8
8 9 10 10 9 10 10 10 10 9 10 10 10 11 12 12 10 10 10 10 10 10 10 10 10 9 10 10 11 10 8 4 9 12 10 12 15 15 16 16 13 9 9 8 8 7 5 5 4 6 11 15 18 21 20 16 12 16 16 15 16 14 9 8 7 8 8 7 7 8 8 8 8 9 9 8 8 7 6 6 7 7 6 7 8
8 9 9 9 9 9 9 9 9 10 9 9 9 9 11 12 11 11 11 11 10 10 9 9 9 9 9 8 9 8 8 8 6 7 9 8 5 9 11 13 14 11 8 7 3 3 7 13 14 10 7 6 5 5 2 5 8 11 15 16 10 6 8 8 9 7 6 7 8 8 8 9 10 10 8 7 8 7 4 5 7 6 5 6 7
7 9 9 8 9 9 10 9 9 9 10 8 8 8 9 10 11 10 11 11 10 10 10 9 8 8 9 8 9 8 9 8 8 5 7 8 6 2 3 5 8 8 3 5 7 8 10 14 18 16 11 9 8 7 6 7 8 8 7 5 1 2 3 3 2 2 4 4 5 8 8 6 4 5 6 6 6 9 8 7 5 6 5 5 5
6 7 9 9 8 9 9 9 9 9 9 8 8 7 8 7 9 11 11 12 11 11 10 9 8 8 8 9 8 8 8 9 8 7 8 6 6 3 3 4 4 4 2 4 7 9 14 14 13 15 15 17 16 15 14 13 12 10 10 8 7 7 6 4 3 4 5 6 6 5 5 4 3 1 3 3 6 5 2 4 6 7 6 5 4
5 7 8 8 8 8 9 12 12 8 9 8 8 8 8 9 8 10 12 12 13 12 11 10 9 8 9 9 8 7 8 8 10 11 10 7 5 4 3 4 4 5 6 7 9 11 11 12 13 11 11 12 12 11 11 11 11 11 11 11 10 10 11 12 12 10 9 7 5 4 3 3 2 3 3 4 6 6 3 4 4 4 3 3 3
5 5 6 7 8 8 8 9 8 8 8 8 8 7 8 9 9 8 9 11 11 12 10 11 10 8 8 11 11 10 9 12 12 12 9 7 9 8 8 7 8 11 11 15 13 12 13 13 12 12 11 11 11 11 11 10 10 11 13 11 10 11 11 11 11 10 10 10 11 10 10 9 9 9 8 7 7 7 8 5 3 4 3 3 4
4 5 5 6 7 7 7 8 8 8 8 7 8 8 9 12 10 9 9 15 19 19 16 11 10 8 7 9 11 12 11 10 14 15 12 16 20 20 17 18 16 16 19 20 17 13 11 12 9 9 11 11 11 11 11 9 9 10 10 11 11 11 10 10 10 10 9 9 9 9 9 8 8 7 7 7 6 7 7 7 7 7 5 5 3
4 5 5 6 7 7 7 7 8 8 8 8 7 8 7 6 10 13 13 14 17 20 20 21 21 21 13 9 12 23 21 18 16 18 18 19 21 22 22 20 18 13 11 20 18 15 12 13 11 9 10 10 12 10 9 10 10 10 9 9 9 10 10 10 10 9 9 9 9 8 8 8 7 7 6 6 6 6 7 7 7 7 7 6 7
4 5 5 5 6 6 6 7 7 8 9 8 8 7 7 7 7 9 12 14 16 18 21 22 23 22 25 22 16 14 21 19 16 22 22 20 24 24 22 22 20 20 21 27 19 13 11 11 10 9 9 12 10 9 9 9 9 8 8 10 11 10 10 10 9 8 8 8 7 6 6 7 6 6 6 6 5 7 7 7 7 6 5 5 5
3 3 3 4 4 6 6 6 7 7 8 8 8 8 8 7 8 9 8 9 13 17 19 22 23 26 27 27 27 23 18 17 20 24 24 21 20 27 29 26 22 17 29 22 16 13 11 11 11 11 11 10 10 10 9 10 9 9 9 9 9 9 9 9 8 7 7 6 6 7 7 7 7 6 5 7 8 8 8 7 7 6 6 6 6
2 1 3 3 4 5 6 6 6 6 6 7 7 7 7 7 7 7 8 10 10 11 15 21 23 24 27 26 25 26 24 21 23 27 27 24 18 17 23 22 27 29 22 15 14 13 11 12 11 11 10 10 9 9 9 9 8 7 7 6 6 6 7 7 7 7 6 7 7 7 7 8 8 9 8 8 8 8 8 8 8 8 8 7 7
2 2 3 3 3 4 5 5 5 5 6 6 7 7 8 7 7 8 9 8 8 9 10 12 19 25 20 19 22 24 23 24 27 27 30 27 23 13 21 20 18 15 17 14 12 12 11 11 11 10 10 10 9 9 9 9 8 8 8 7 7 6 7 7 7 7 7 7 8 8 8 8 8 8 7 7 8 8 8 8 8 7 7 7 7
2 2 1 2 2 2 4 5 5 6 6 6 5 6 6 7 8 8 8 9 10 10 10 11 9 14 21 20 25 23 24 24 25 28 28 23 18 12 17 11 13 12 13 13 13 13 12 11 10 10 9 9 9 9 8 8 8 8 7 7 8 7 7 8 8 7 8 7 7 7 7 7 7 7 6 6 7 6 6 6 6 6 5 5 5
2 2 1 2 1 2 3 3 4 5 5 5 6 6 6 7 7 7 8 9 10 10 11 11 11 12 15 13 17 21 23 21 25 28 26 21 17 16 14 14 12 12 13 12 12 11 11 10 10 10 10 9 10 9 8 8 8 7 7 8 8 8 8 7 8 7 7 7 7 7 7 6 6 6 6 5 5 5 5 5 5 4 4 6 5
1 2 1 1 1 2 3 4 4 5 5 5 6 6 7 7 8 8 9 10 10 10 11 11 11 11 12 12 15 10 11 13 20 21 18 16 15 14 14 15 14 13 12 11 11 10 10 10 10 10 9 9 9 9 8 7 7 8 8 7 7 7 9 7 9 8 8 7 7 6 6 7 6 7 7 6 6 7 6 6 6 7 6 6 5
1 3 2 3 2 2 2 3 4 4 5 5 6 6 7 7 8 8 8 8 9 9 9 9 10 10 10 8 9 10 10 14 14 12 11 10 11 12 13 13 13 12 11 10 9 10 10 10 9 9 9 9 9 8 8 8 8 8 8 7 7 7 9 8 8 8 7 7 6 7 6 6 7 6 6 6 7 7 7 7 7 6 7 7 7
2 2 3 0 2 2 2 2 3 4 4 5 6 6 6 7 7 7 7 8 9 8 9 10 10 9 8 8 8 7 12 13 12 10 11 12 13 13 13 13 12 11 11 10 10 10 10 9 9 9 9 8 8 8 8 8 8 7 8 8 8 8 8 7 8 8 8 8 7 7 8 8 8 8 7 7 7 8 8 8 7 6 6 6 6
1 5 4 3 2 2 3 3 4 5 5 4 4 6 6 6 6 5 6 7 7 8 9 9 9 8 9 12 16 13 10 10 9 10 10 10 11 11 12 11 11 11 10 10 9 9 9 9 9 9 8 9 8 9 8 9 9 9 9 9 8 7 7 7 7 7 8 7 6 6 6 7 6 7 8 7 7 7 7 7 7 7 7 6 6
3 4 4 4 1 1 3 2 2 4 4 4 5 6 5 5 6 6 6 6 6 6 7 7 7 7 11 18 16 14 9 8 8 9 9 9 9 10 10 10 10 10 10 9 9 8 8 8 8 8 9 9 9 8 8 8 9 9 9 8 8 8 8 8 8 8 8 8 8 8 7 7 7 7 7 7 6 6 6 6 6 6 6 6 6
4 5 5 3 2 1 1 2 2 4 4 5 5 5 5 5 6 5 6 5 5 5 6 6 5 5 7 10 11 11 9 8 7 9 9 8 8 8 8 8 8 8 8 7 7 6 6 7 7 7 7 8 7 7 7 8 7 7 8 9 9 9 9 8 8 9 8 8 8 9 9 9 8 7 8 8 8 7 7 7 6 6 6 6 6
4 4 4 4 6 5 5 6 5 4 4 4 5 5 4 5 5 5 6 6 5 5 5 5 6 6 6 6 7 8 8 8 8 7 7 7 7 7 7 7 7 7 7 7 6 6 6 6 6 6 6 6 6 7 6 6 6 7 7 7 7 8 7 7 8 8 8 8 8 8 8 8 8 8 7 8 8 8 8 8 8 7 7 7 7
4 5 5 5 4 6 6 5 5 4 4 4 5 5 4 5 6 5 5 6 5 6 5 5 5 6 6 6 7 8 8 7 7 7 7 7 6 6 6 6 6 7 7 7 7 7 7 7 7 7 7 6 6 6 6 6 6 6 6 7 7 7 7 7 7 7 7 7 6 7 7 7 7 7 8 8 8 7 7 7 7 7 7 7 7
5 5 6 7 5 4 6 6 4 5 5 4 4 4 4 5 5 4 5 5 6 6 6 6 5 6 6 6 6 7 7 7 7 7 7 7 6 6 5 6 6 6 6 6 6 7 7 7 7 7 7 6 7 7 7 7 7 7 7 7 7 7 7 7 7 7 6 7 7 6 6 6 7 7 9 9 7 7 7 7 7 6 7 7 7
5 5 5 6 6 4 4 4 6 5 4 4 4 4 5 4 4 4 4 5 5 5 6 6 5 6 6 6 6 6 6 6 7 7 7 7 7 7 7 7 6 6 6 6 7 6 7 7 7 7 6 6 6 7 8 7 7 7 7 7 8 8 8 8 7 7 7 7 7 6 6 6 6 7 8 8 7 7 7 7 7 8 7 7 7
6 6 6 5 6 6 5 5 6 6 6 5 4 4 4 4 5 5 5 4 5 5 5 5 5 5 5 6 5 6 6 6 6 6 6 7 6 7 7 7 5 6 6 6 6 6 6 6 7 7 6 7 5 6 6 6 6 7 7 7 8 9 12 12 7 6 6 7 6 6 6 6 6 6 7 7 7 7 7 7 7 7 7 7 7
6 7 7 6 7 7 6 6 6 6 6 6 5 5 4 5 5 5 5 5 5 5 5 5 5 5 5 5 5 5 5 6 6 6 6 6 6 6 7 7 6 6 6 5 6 6 6 6 7 6 6 6 6 6 6 7 7 7 8 8 11 16 15 15 9 9 10 7 5 5 5 5 5 6 6 6 7 6 6 6 7 7 7 7 7
7 6 7 6 6 6 6 6 6 6 6 6 6 6 5 5 5 5 5 5 5 5 5 5 5 5 5 5 5 5 5 6 6 6 6 6 6 6 6 6 6 6 5 5 5 5 5 6 6 6 6 6 5 5 5 5 5 7 6 9 15 16 16 17 14 15 12 6 7 5 6 6 5 6 6 6 6 7 7 7 8 8 7 7 7
5 6 6 6 6 6 6 6 6 6 6 6 6 6 6 6 5 5 5 5 5 5 4 5 5 5 5 5 5 5 5 5 5 5 5 5 5 6 6 6 6 6 5 5 5 5 5 5 6 6 7 5 6 6 6 6 7 8 11 16 17 17 17 16 13 14 16 11 5 6 6 7 6 7 7 7 7 7 9 8 8 8 7 7 7
Wind_Direction
305 303 302 297 294 295 298 301 299 297 295 293 293 293 289 284 277 263 253 245 240 238 239 239 239 235 233 228 225 220 216 215 213 206 213 218 212 210 214 209 210 215 218 219 215 215 217 221 225 225 220 222 225 225 227 225 220 222 223 223 229 222 218 228 240 253 253 202 227 239 251 253 266 219 240 241 245 234 222 227 226 223 224 226 230
309 304 302 298 297 300 300 298 294 292 289 293 293 292 291 288 282 269 253 247 239 238 236 237 237 235 233 234 228 223 216 212 210 205 206 222 219 210 215 212 215 219 216 223 220 218 213 218 224 224 218 222 223 224 224 224 222 222 221 218 226 227 212 222 235 241 256 217 238 234 259 200 254 224 224 238 242 240 236 233 232 227 228 228 229
307 303 301 302 301 300 296 293 292 293 296 294 290 290 290 290 287 275 257 248 242 236 237 234 234 233 232 231 233 228 220 219 211 208 208 211 213 212 214 213 215 218 218 223 223 219 217 219 223 221 217 221 223 225 223 226 222 225 229 223 228 226 215 217 229 239 246 254 212 238 229 231 222 251 244 242 249 239 240 238 232 234 233 230 232
308 303 300 297 298 296 293 293 296 297 292 289 286 288 289 288 287 281 265 250 246 240 236 236 233 233 231 232 232 233 226 219 219 214 212 212 213 214 214 214 214 216 218 221 220 216 218 222 224 219 215 220 223 223 223 224 224 226 231 231 230 232 227 220 226 237 244 257 229 215 221 230 245 240 254 252 248 253 237 248 241 241 242 236 235
308 302 299 299 298 298 296 295 293 290 287 285 285 287 287 286 287 283 272 256 246 244 242 238 238 234 231 229 230 230 227 221 219 216 212 211 214 216 216 215 217 217 219 221 219 217 218 221 224 215 212 220 224 223 220 221 224 227 232 232 230 232 229 225 229 229 241 245 253 214 215 228 238 240 228 248 258 254 249 240 235 236 238 239 239
309 304 302 302 299 297 294 290 286 286 286 286 286 285 285 284 283 281 267 256 251 245 246 245 239 236 232 229 229 229 225 222 220 218 215 213 214 217 218 216 218 219 221 223 220 217 219 220 222 215 212 216 223 222 219 220 222 227 232 233 231 229 227 228 223 228 233 244 249 256 214 233 251 238 224 220 241 258 261 254 246 238 241 257 245
314 310 302 296 292 290 289 287 283 282 282 281 283 285 283 282 281 275 262 254 259 260 252 251 246 240 236 232 231 230 228 224 220 218 217 217 216 216 216 216 218 220 221 221 220 221 220 221 221 216 216 217 221 220 218 219 220 226 230 232 232 230 230 228 224 226 230 241 248 246 253 237 227 255 239 214 234 233 246 260 263 244 230 237 256
313 313 309 294 290 289 281 284 285 282 281 284 285 285 287 290 289 278 266 258 257 257 257 254 254 249 243 238 236 235 232 231 226 222 219 219 219 218 217 216 218 220 222 222 220 221 221 222 222 219 218 220 221 222 217 219 218 226 227 227 227 228 230 230 228 230 234 239 243 247 239 249 243 244 269 224 251 255 231 234 254 260 254 251 237
307 313 308 290 285 291 291 296 305 312 307 303 308 313 316 317 312 299 278 262 256 259 259 258 255 249 246 243 240 235 234 234 233 228 221 222 222 222 220 218 217 219 222 223 224 224 224 223 223 222 220 223 221 220 217 215 217 224 227 221 225 225 230 230 229 229 236 238 246 241 242 243 237 232 231 225 229 241 214 201 248 256 260 283 268
301 303 316 316 312 309 316 323 321 319 317 316 317 320 321 319 317 314 300 281 277 275 276 267 256 249 244 242 240 236 234 232 232 231 226 223 223 224 225 222 220 219 220 221 222 223 224 224 226 225 224 224 225 222 219 217 217 220 225 216 219 221 225 228 226 227 230 234 237 235 233 242 240 224 230 232 232 242 233 213 232 253 218 258 277
305 313 316 317 314 313 316 321 322 320 319 318 322 324 323 322 324 331 333 324 305 294 283 279 271 258 249 245 242 237 235 237 234 227 223 222 225 225 223 224 221 221 220 220 221 217 222 226 230 238 238 235 233 226 221 221 220 222 224 219 213 213 220 222 226 223 224 231 236 229 231 242 244 227 226 238 218 222 227 217 230 240 226 245 267
302 315 318 314 318 321 320 319 319 319 321 321 320 320 323 325 327 330 330 330 329 322 303 280 277 275 270 261 254 247 238 232 229 226 224 223 221 224 223 221 219 221 220 222 222 218 216 218 222 225 235 242 240 234 229 226 223 222 223 222 218 216 214 214 222 223 217 225 232 231 231 238 247 228 233 226 227 227 230 213 221 226 234 230 245
305 311 315 315 321 322 318 316 316 317 318 319 318 321 324 325 328 330 327 325 322 323 319 303 277 271 267 265 262 254 251 238 230 227 224 221 219 220 227 219 217 217 218 220 219 216 214 216 221 220 219 226 240 245 252 254 248 247 241 230 223 219 219 221 220 221 215 219 227 234 229 238 245 241 219 211 196 219 223 223 229 228 231 235 245
314 308 308 311 319 320 317 315 314 315 317 319 319 319 322 322 323 321 319 320 318 316 317 318 312 293 276 266 261 262 254 246 233 236 231 223 216 214 225 222 219 216 214 216 216 217 214 212 214 220 217 216 223 232 231 236 243 250 265 273 272 254 242 233 229 228 225 220 222 234 241 232 241 250 207 187 189 222 212 228 227 233 230 233 242
316 312 309 308 314 319 319 316 314 316 317 316 317 317 318 319 320 321 316 313 313 314 315 314 311 307 295 280 276 267 256 228 204 218 232 236 225 211 221 221 223 221 215 212 213 215 215 214 208 209 208 211 209 205 220 224 224 226 239 244 242 252 265 278 286 319 324 322 303 285 275 262 249 252 222 195 205 216 207 217 223 227 234 258 275
313 311 314 314 314 317 317 322 321 317 316 317 317 316 316 319 318 318 312 308 305 305 305 301 303 307 304 296 276 265 264 236 215 216 218 222 214 219 220 220 219 220 220 216 213 214 214 213 208 205 207 215 215 209 214 215 219 223 221 222 230 226 228 224 214 199 196 179 205 241 261 279 314 288 241 202 214 220 224 232 87 151 169 231 248
321 322 322 317 312 314 315 321 327 324 322 318 313 312 313 312 311 310 305 308 308 309 305 301 300 300 302 298 286 272 271 252 229 228 220 219 209 205 222 229 230 227 223 223 220 214 211 210 210 208 208 212 220 213 209 207 221 224 229 231 234 234 245 251 224 216 210 203 209 216 226 242 270 327 306 278 246 228 201 211 228 182 168 227 241
327 323 319 321 319 315 324 332 330 327 321 317 314 311 306 298 296 301 303 307 304 303 300 298 296 291 294 295 289 281 269 259 236 231 222 219 210 211 218 220 215 223 224 225 228 229 223 216 212 211 210 214 215 212 206 196 210 214 224 223 217 225 230 226 228 226 219 217 227 249 263 264 228 227 224 236 255 276 196 230 237 194 214 214 241
331 329 327 329 334 335 338 337 332 324 315 308 306 304 304 304 302 298 292 289 289 294 294 294 294 291 287 287 290 284 274 265 246 233 230 221 213 213 209 209 214 220 219 216 213 224 239 230 220 215 213 213 212 205 193 187 200 202 211 201 195 200 210 210 217 221 241 227 176 193 216 227 225 218 226 229 230 210 201 218 240 235 232 212 218
326 324 333 345 343 340 338 339 335 332 325 319 312 305 299 298 297 295 291 289 292 294 294 292 289 288 288 284 283 280 275 268 252 238 235 227 218 214 212 218 214 217 210 206 208 211 222 230 229 227 227 223 213 202 195 192 197 203 198 197 199 222 214 211 211 202 212 214 209 196 214 223 221 206 215 226 235 234 216 212 224 240 251 248 237
326 332 349 345 343 340 341 341 337 335 339 330 325 313 304 295 293 294 295 300 304 305 303 299 293 290 288 284 283 279 271 267 257 239 237 227 212 199 207 212 213 209 209 208 209 208 214 217 218 219 224 228 221 213 208 208 216 206 197 191 191 213 216 218 216 206 196 193 197 206 216 222 224 219 220 226 237 239 230 215 216 226 254 290 298
332 354 346 346 346 344 341 341 336 341 353 345 342 342 342 345 337 340 340 331 321 315 314 310 306 303 302 293 293 295 279 262 258 246 231 226 218 200 205 212 205 199 202 202 212 220 228 225 224 218 218 228 234 235 229 218 210 205 205 199 198 201 201 218 175 153 170 183 192 205 212 214 222 226 224 225 231 242 242 161 165 178 188 208 216
346 351 347 349 349 346 343 345 341 340 359 356 351 348 350 346 345 346 342 336 328 322 315 315 314 313 312 313 314 305 296 278 262 280 252 226 215 202 206 212 205 205 199 200 205 217 219 221 219 211 205 214 225 230 225 210 213 231 241 226 210 206 209 199 175 190 186 189 195 206 213 213 224 231 230 236 236 218 176 186 200 211 215 207 214
348 349 349 349 349 347 348 345 344 342 358 1 358 351 352 351 350 350 345 340 334 327 323 318 316 317 327 325 327 314 306 3 29 10 328 255 226 209 206 214 215 202 205 207 211 210 201 198 201 203 210 209 213 217 218 197 206 213 218 219 216 209 199 204 201 202 196 189 196 207 216 218 219 225 227 217 206 193 194 218 239 235 208 209 214
350 349 347 348 347 346 346 346 348 354 350 354 356 357 351 354 357 357 350 348 342 336 331 329 327 326 325 331 322 359 10 348 2 349 342 17 286 235 219 214 216 213 206 220 195 150 162 178 183 190 208 213 210 220 257 215 232 239 230 228 219 198 200 199 204 195 203 209 213 215 220 223 220 222 227 219 211 190 174 225 253 255 237 220 216
353 349 346 347 348 345 347 350 352 355 355 349 353 6 360 350 358 359 357 353 349 345 340 336 334 335 329 334 334 347 351 345 324 323 357 2 15 357 192 193 219 239 299 58 65 65 60 54 57 58 55 48 56 50 71 60 50 47 45 37 350 336 322 299 331 284 248 238 229 224 230 236 235 228 225 233 218 212 187 179 196 239 221 214 208
354 350 352 348 347 348 349 353 352 354 355 356 0 9 12 353 351 4 6 3 357 353 350 343 342 347 345 344 338 356 358 347 334 343 355 350 343 355 94 105 133 134 111 67 61 76 66 61 58 61 65 55 51 51 49 41 35 28 31 33 36 28 23 13 354 7 343 325 293 294 301 325 343 342 249 260 272 293 272 193 188 214 203 202 209
353 352 352 353 349 353 353 355 355 352 355 1 3 5 16 10 2 5 8 5 3 359 358 353 351 351 3 360 353 5 6 354 354 354 349 343 339 15 55 88 87 99 96 90 76 70 71 59 50 38 41 43 41 38 38 37 38 37 35 32 26 33 34 35 38 31 17 351 342 325 325 332 321 295 293 257 256 262 254 218 216 238 212 189 190
342 348 351 356 354 357 359 357 357 356 356 360 6 10 12 16 5 5 4 7 8 5 356 5 1 358 18 22 20 17 15 9 354 346 342 24 51 51 32 50 69 68 74 90 86 68 63 57 49 44 37 43 42 41 34 30 34 38 38 30 28 27 31 30 29 23 8 12 15 9 12 16 19 12 1 354 352 352 346 317 282 259 247 194 210
350 353 351 358 356 357 360 358 2 6 4 3 3 3 10 24 24 13 5 7 13 16 17 16 13 7 18 31 29 30 21 355 339 10 12 48 56 60 62 63 68 84 83 75 78 73 63 65 54 52 44 43 45 43 36 29 31 35 36 33 33 31 32 32 28 20 13 16 8 14 14 9 18 10 7 353 341 1 5 16 12 360 0 344 314
7 357 353 3 360 356 360 3 7 12 10 10 6 7 355 354 18 19 18 15 19 22 23 23 27 31 33 35 32 32 19 5 8 34 31 48 56 59 59 62 62 56 80 83 58 63 62 62 57 53 53 47 45 38 34 33 31 34 30 29 34 30 29 33 22 15 18 21 9 9 10 12 11 358 354 352 344 354 4 12 23 27 28 18 19
22 359 348 350 359 3 4 6 6 12 14 13 12 8 5 2 1 13 13 15 22 27 27 27 29 33 36 39 40 36 20 3 20 42 38 38 62 58 55 60 60 71 72 80 75 61 57 62 53 49 49 52 45 39 37 34 31 28 25 28 29 23 22 25 14 18 20 21 16 4 14 18 7 356 352 357 345 12 11 11 17 15 15 26 28
30 22 3 356 4 10 10 9 9 13 12 12 14 12 15 10 8 360 2 14 25 30 29 27 27 31 38 37 39 44 30 8 28 43 41 29 43 71 62 54 52 51 68 65 79 67 57 58 58 51 50 51 42 39 36 35 33 33 31 33 29 22 18 11 7 18 17 15 17 14 6 14 2 356 1 7 12 15 8 12 10 11 10 10 6
348 46 48 359 2 23 20 12 11 15 14 17 15 16 17 14 9 4 12 14 21 28 30 28 26 29 33 34 36 40 35 23 31 40 33 25 9 37 75 65 54 45 59 74 65 68 60 59 55 50 49 49 45 41 39 34 30 31 30 29 31 21 18 9 18 17 15 14 19 15 11 14 12 9 7 8 8 11 12 6 4 5 10 6 359
346 342 72 35 8 15 23 19 16 15 19 23 22 25 25 22 19 23 23 17 16 23 13 22 26 31 34 29 26 34 36 30 35 41 41 24 353 313 57 56 49 43 43 50 59 59 59 55 54 48 45 47 42 40 39 34 31 30 26 21 22 23 21 25 22 17 15 15 15 14 10 7 10 7 7 4 4 8 3 359 358 359 355 351 353
335 306 64 68 34 14 15 24 24 25 24 23 25 28 28 30 33 32 28 29 33 30 31 27 19 28 33 33 29 29 35 37 42 45 46 33 356 19 62 54 55 42 47 41 48 48 49 48 46 41 40 39 40 41 37 33 28 28 21 20 21 19 22 21 18 16 16 16 13 7 7 9 6 3 356 357 5 360 350 348 340 340 337 334 329
330 325 23 53 55 28 6 8 22 26 30 27 26 35 32 36 35 36 36 36 35 33 34 21 21 25 32 31 30 33 31 37 43 46 42 34 21 43 58 55 56 50 44 41 40 42 45 41 44 42 37 35 31 31 29 28 22 19 13 21 18 19 19 16 13 11 7 10 2 3 2 0 356 353 349 347 349 348 343 337 331 328 330 329 333
314 290 1 7 37 31 26 21 19 23 30 32 32 30 31 33 32 32 34 35 35 37 38 36 32 28 21 16 11 23 22 31 45 45 36 31 30 41 47 54 53 54 52 46 45 46 48 43 42 42 35 34 31 26 27 19 20 17 11 12 16 16 11 12 14 12 10 5 5 1 359 358 355 349 347 352 350 348 348 345 345 342 339 343 351
253 302 326 50 43 68 40 41 34 41 39 40 39 37 34 30 29 33 33 35 38 38 41 43 41 38 30 11 17 6 18 37 38 38 29 23 28 35 43 46 49 51 51 49 45 48 48 47 41 43 39 35 32 28 22 17 15 16 15 13 8 12 14 15 6 6 5 357 350 345 345 354 351 348 343 343 347 348 341 341 343 343 339 337 336
212 211 252 139 69 75 72 50 48 57 53 53 46 44 46 39 36 31 28 35 38 39 39 41 42 39 29 32 27 19 51 49 48 42 43 40 41 40 45 50 51 53 52 50 47 46 49 47 44 43 42 39 34 30 26 21 21 15 17 13 10 11 8 5 1 3 355 352 346 342 344 346 348 347 346 351 347 343 342 339 338 333 331 322 319
119 173 199 197 156 106 72 54 60 59 57 60 60 60 56 52 44 40 40 39 41 43 43 42 44 37 32 38 40 42 60 61 56 56 52 54 51 52 50 51 51 52 49 49 47 45 45 44 40 39 35 35 30 29 24 23 21 20 17 14 9 3 1 359 359 354 353 343 337 330 330 334 334 344 339 339 340 340 335 331 328 330 327 325 320
89 120 153 180 181 112 98 86 49 52 63 68 60 64 65 61 56 55 51 50 52 51 56 53 44 35 36 39 43 47 62 66 65 64 62 58 60 60 60 59 56 55 53 49 44 44 42 42 42 38 38 33 32 27 24 27 22 21 20 13 10 5 1 357 355 350 348 344 339 334 333 330 332 333 334 337 335 336 330 327 323 315 317 315 313
119 131 132 125 122 137 121 72 73 77 68 68 68 72 72 74 69 62 61 61 60 57 64 59 47 38 40 35 39 43 56 55 54 54 55 57 59 63 64 64 61 60 59 57 52 49 49 48 45 43 41 41 35 33 28 26 20 17 18 17 11 5 359 354 349 347 342 339 337 338 336 332 330 331 334 336 336 336 334 330 328 328 326 323 325
121 115 97 99 104 91 88 95 89 84 89 84 78 72 79 80 72 64 65 61 55 55 60 58 55 49 45 31 36 46 52 51 52 51 49 51 54 58 62 67 68 67 62 60 55 54 55 55 51 44 45 42 39 36 36 27 24 24 20 17 10 4 355 347 344 342 336 329 329 332 329 324 323 322 324 327 331 335 335 333 334 333 330 328 327
120 114 110 101 95 98 93 92 100 95 81 70 62 63 72 79 75 70 62 55 53 55 55 56 52 52 50 46 44 48 47 48 48 49 49 48 51 52 55 60 64 65 61 55 50 47 48 45 43 39 35 33 31 31 29 27 24 24 24 15 9 358 352 343 334 322 314 314 315 319 319 317 316 319 319 320 322 327 327 330 325 326 327 328 327
118 123 115 112 106 101 103 98 97 91 86 80 76 70 67 72 80 80 68 62 58 55 52 52 52 54 55 54 48 50 48 48 48 47 49 48 50 52 58 66 73 71 66 60 52 49 46 44 39 37 29 26 23 24 21 20 19 18 18 18 5 351 339 332 319 312 311 318 311 306 302 305 307 311 316 316 315 320 322 320 322 324 322 319 317
111 116 119 115 119 119 111 109 99 93 86 78 76 76 69 75 80 75 73 72 67 60 59 55 57 59 58 55 55 54 49 50 49 50 49 50 48 49 54 64 76 78 73 62 57 50 46 41 38 35 30 22 20 20 16 13 12 10 10 5 3 347 342 333 320 314 314 312 304 292 298 298 305 308 315 315 315 320 324 318 322 323 325 322 321
115 116 119 121 120 119 121 111 107 103 96 96 89 84 84 83 76 81 82 75 67 64 64 59 61 61 64 60 59 57 54 54 50 51 48 49 47 49 51 60 68 76 79 68 60 54 49 43 39 36 34 27 23 19 16 9 10 6 5 1 358 350 338 336 324 322 319 309 294 292 289 298 301 308 313 319 322 326 326 325 325 327 329 330 328
123 123 125 124 126 130 133 129 126 121 121 116 100 92 88 83 82 87 85 82 75 66 64 64 61 57 63 66 66 61 59 57 56 51 49 47 47 48 51 56 62 70 76 75 65 57 54 47 42 37 33 29 25 18 15 14 7 8 360 359 348 343 346 347 343 340 332 321 310 307 302 301 312 321 329 334 334 333 329 328 331 328 326 330 332
127 130 129 130 128 130 126 124 125 124 123 115 114 110 99 96 94 94 93 91 82 74 65 66 65 62 67 64 63 62 62 59 58 55 52 50 48 49 52 54 56 60 69 78 74 64 56 48 41 37 34 29 28 23 13 7 3 355 352 350 347 351 353 352 350 349 348 337 326 320 321 324 328 336 343 342 341 344 350 345 341 336 332 332 338
125 128 131 134 134 132 127 124 124 127 125 124 124 122 118 113 111 106 102 103 103 101 91 78 72 72 68 68 71 69 67 63 59 57 55 52 51 51 52 54 54 54 56 65 73 70 57 50 41 33 29 22 19 15 8 6 5 353 349 352 356 357 358 358 354 347 348 347 337 341 346 344 343 348 349 348 347 351 350 347 345 343 337 334 333